DW2685 Weather Reports


Display with metric or nautical units.
time (UTC)temp
F
wind
direction
speed
MPH
gust
MPH
rain 1hr
in
rain 24hr
in
rain mn
in
humidity
%
barometer
mb
20220519075506 68 171 0.0 4.0 0.00 0.00 0.00 80 1011.3
20220519075006 68 278 1.0 4.0 0.00 0.00 0.00 80 1011.4
20220519074502 68 315 1.0 4.0 0.00 0.00 0.00 79 1011.4
20220519074002 68 71 1.0 4.0 0.00 0.00 0.00 79 1011.4
20220519073501 68 202 0.0 2.0 0.00 0.00 0.00 79 1011.6
20220519073000 68 269 0.0 2.0 0.00 0.00 0.00 79 1011.5
20220519072501 68 269 0.0 3.0 0.00 0.00 0.00 79 1011.4
20220519072001 68 269 0.0 4.0 0.00 0.00 0.00 79 1011.3
20220519071500 68 277 1.0 4.0 0.00 0.00 0.00 79 1011.4
20220519071100 68 265 1.0 4.0 0.00 0.00 0.00 78 1011.3
20220519070601 69 226 0.0 3.0 0.00 0.00 0.00 78 1011.3
20220519070059 68 221 1.0 4.0 0.00 0.00 0.00 78 1011.3
20220519065558 68 291 1.0 4.0 0.00 0.00 0.00 79 1011.3
20220519065102 68 255 1.0 6.0 0.00 0.00 0.00 79 1011.3
20220519064600 68 285 0.0 2.0 0.00 0.00 0.00 79 1011.3
20220519064057 68 267 0.0 0.0 0.00 0.00 0.00 79 1011.3
20220519063557 68 271 0.0 2.0 0.00 0.00 0.00 79 1011.4
20220519063057 68 257 0.0 3.0 0.00 0.00 0.00 79 1011.7
20220519062559 68 246 1.0 3.0 0.00 0.00 0.00 79 1011.7
20220519062053 68 208 0.0 4.0 0.00 0.00 0.00 78 1011.8
20220519061553 68 248 0.0 3.0 0.00 0.00 0.00 78 1012.0
20220519061052 68 245 0.0 3.0 0.00 0.00 0.00 78 1012.1
20220519060554 67 268 0.0 3.0 0.00 0.00 0.00 78 1012.3
20220519060051 68 208 0.0 2.0 0.00 0.00 0.00 78 1012.4
20220519055550 68 302 0.0 2.0 0.00 0.00 0.00 77 1012.4
20220519055053 68 303 0.0 2.0 0.00 0.00 0.00 77 1012.5
20220519054555 68 286 0.0 2.0 0.00 0.00 0.00 76 1012.6
20220519054049 68 286 0.0 2.0 0.00 0.00 0.00 77 1012.7
20220519053549 68 32 0.0 1.0 0.00 0.00 0.00 76 1012.6
20220519053048 68 32 0.0 2.0 0.00 0.00 0.00 76 1012.6
20220519052554 68 31 0.0 2.0 0.00 0.00 0.00 76 1012.6
20220519052048 68 37 0.0 2.0 0.00 0.00 0.00 75 1012.7
20220519051545 68 289 0.0 1.0 0.00 0.00 0.00 74 1012.8
20220519051046 68 289 0.0 1.0 0.00 0.00 0.00 74 1013.0
20220519050544 68 289 0.0 2.0 0.00 0.00 0.00 74 1013.0
20220519050053 68 289 0.0 5.0 0.00 0.00 0.00 75 1013.0
20220519045543 68 285 0.0 5.0 0.00 0.00 0.00 75 1013.0
20220519045514 68 263 0.0 4.0 0.00 0.00 0.00 75 1013.0
20220519045044 68 267 0.0 2.0 0.00 0.00 0.00 75 1012.9
20220519044541 67 267 0.0 2.0 0.00 0.00 0.00 74 1013.1
20220519044041 67 263 0.0 2.0 0.00 0.00 0.00 74 1013.1
20220519043541 67 269 0.0 2.0 0.00 0.00 0.00 74 1013.2
20220519043104 67 273 0.0 2.0 0.00 0.00 0.00 74 1013.3
20220519042539 67 273 0.0 2.0 0.00 0.00 0.00 73 1013.4
20220519042040 67 248 0.0 2.0 0.00 0.00 0.00 74 1013.2
20220519041537 67 248 0.0 4.0 0.00 0.00 0.00 74 1013.3
20220519041036 67 250 0.0 4.0 0.00 0.00 0.00 74 1013.3
20220519040537 67 328 0.0 3.0 0.00 0.00 0.00 75 1013.3
20220519040034 66 333 0.0 2.0 0.00 0.00 0.00 76 1013.4
20220519035535 66 287 0.0 2.0 0.00 0.00 0.00 78 1013.3
20220519035036 66 25 0.0 0.0 0.00 0.00 0.00 79 1013.3
20220519034533 66 25 0.0 0.0 0.00 0.00 0.00 79 1013.4
20220519034034 66 25 0.0 1.0 0.00 0.00 0.00 79 1013.5
20220519033534 67 25 0.0 1.0 0.00 0.00 0.00 79 1013.5
20220519033037 67 25 0.0 0.0 0.00 0.00 0.00 79 1013.4
20220519032535 67 25 0.0 0.0 0.00 0.00 0.00 77 1013.3
20220519032033 67 25 0.0 0.0 0.00 0.00 0.00 77 1013.3
20220519031537 67 25 0.0 0.0 0.00 0.00 0.00 76 1013.0
20220519031036 67 25 0.0 0.0 0.00 0.00 0.00 76 1013.1
20220519030532 67 25 0.0 0.0 0.00 0.00 0.00 77 1013.2
20220519030033 67 25 0.0 0.0 0.00 0.00 0.00 76 1013.3
20220519025534 67 25 0.0 0.0 0.00 0.00 0.00 77 1013.2
20220519025032 67 25 0.0 0.0 0.00 0.00 0.00 77 1013.3
20220519024543 67 25 0.0 0.0 0.00 0.00 0.00 75 1013.2
20220519024032 67 25 0.0 0.0 0.00 0.00 0.00 77 1013.2
20220519023532 67 25 0.0 0.0 0.00 0.00 0.00 76 1013.1
20220519023048 68 25 0.0 0.0 0.00 0.00 0.00 78 1012.9
20220519022531 68 25 0.0 0.0 0.00 0.00 0.00 79 1012.8
20220519022031 68 25 0.0 0.0 0.00 0.00 0.00 77 1012.8
20220519021535 68 25 0.0 0.0 0.00 0.00 0.00 74 1012.7
20220519021033 67 25 0.0 2.0 0.00 0.00 0.00 74 1012.7
20220519020530 67 25 0.0 2.0 0.00 0.00 0.00 75 1012.6
20220519020030 68 25 0.0 0.0 0.00 0.00 0.00 76 1012.7
20220519015531 68 25 0.0 0.0 0.00 0.00 0.00 76 1012.8
20220519015031 68 24 0.0 0.0 0.00 0.00 0.00 75 1012.9
20220519014529 68 25 0.0 0.0 0.00 0.00 0.00 75 1012.9
20220519014029 68 25 0.0 0.0 0.00 0.00 0.00 75 1012.8
20220519013529 69 25 0.0 0.0 0.00 0.00 0.00 74 1013.0
20220519013029 69 25 0.0 0.0 0.00 0.00 0.00 74 1013.1
20220519012530 69 24 0.0 0.0 0.00 0.00 0.00 74 1013.1
20220519012028 69 25 0.0 0.0 0.00 0.00 0.00 74 1013.1
20220519011528 70 25 0.0 1.0 0.00 0.00 0.00 72 1013.1
20220519011030 70 24 0.0 1.0 0.00 0.00 0.00 72 1013.2
20220519010527 71 25 0.0 0.0 0.00 0.00 0.00 72 1013.1
20220519010031 71 25 0.0 0.0 0.00 0.00 0.00 71 1013.0
20220519005528 72 25 0.0 0.0 0.00 0.00 0.00 70 1012.9
20220519005028 72 25 0.0 0.0 0.00 0.00 0.00 66 1012.7
20220519004536 73 25 0.0 0.0 0.00 0.00 0.00 67 1012.7
20220519004027 73 25 0.0 0.0 0.00 0.00 0.00 65 1012.7
20220519003526 74 25 0.0 0.0 0.00 0.00 0.00 65 1012.7
20220519003034 74 25 0.0 0.0 0.00 0.00 0.00 64 1012.8
20220519002525 75 25 0.0 0.0 0.00 0.00 0.00 66 1012.9
20220519002025 75 25 0.0 0.0 0.00 0.00 0.00 61 1012.8
20220519001525 76 25 0.0 0.0 0.00 0.00 0.00 60 1012.7
20220519001028 76 42 0.0 1.0 0.00 0.00 0.00 59 1012.7
20220519000525 76 40 0.0 1.0 0.00 0.00 0.00 61 1012.7
20220519000028 76 38 0.0 1.0 0.00 0.00 0.00 59 1012.7
20220518235528 77 74 0.0 0.0 0.00 0.00 0.00 58 1012.9
20220518235028 77 74 0.0 1.0 0.00 0.00 0.00 61 1012.9
20220518234523 77 74 0.0 1.0 0.00 0.00 0.00 59 1013.0
20220518234023 78 73 0.0 0.0 0.00 0.00 0.00 60 1013.1
20220518233529 78 70 0.0 0.0 0.00 0.00 0.00 60 1013.0
20220518233023 79 21 0.0 0.0 0.00 0.00 0.00 58 1013.0
20220518232524 79 21 0.0 0.0 0.00 0.00 0.00 59 1013.0
20220518232023 79 21 0.0 1.0 0.00 0.00 0.00 58 1013.0
20220518231522 79 21 0.0 1.0 0.00 0.00 0.00 54 1013.0
20220518231023 80 21 0.0 1.0 0.00 0.00 0.00 58 1013.0
20220518230522 80 15 0.0 2.0 0.00 0.00 0.00 54 1013.0
20220518230024 80 115 0.0 2.0 0.00 0.00 0.00 56 1012.9
20220518225525 81 288 0.0 2.0 0.00 0.00 0.00 55 1012.9
20220518225020 81 169 0.0 2.0 0.00 0.00 0.00 53 1013.0
20220518224518 81 171 0.0 4.0 0.00 0.00 0.00 48 1013.2
20220518224019 81 266 2.0 4.0 0.00 0.00 0.00 47 1013.3
20220518223517 82 294 0.0 1.0 0.00 0.00 0.00 52 1013.4
20220518223037 82 206 0.0 2.0 0.00 0.00 0.00 47 1013.4
20220518222520 82 194 0.0 2.0 0.00 0.00 0.00 47 1013.3
20220518222018 83 193 0.0 2.0 0.00 0.00 0.00 47 1013.5
20220518221516 83 239 0.0 2.0 0.00 0.00 0.00 46 1013.5
20220518221016 83 240 0.0 2.0 0.00 0.00 0.00 45 1013.6
20220518220518 83 238 0.0 2.0 0.00 0.00 0.00 43 1013.7
20220518220019 84 238 0.0 6.0 0.00 0.00 0.00 47 1013.7
20220518215520 84 238 1.0 8.0 0.00 0.00 0.00 42 1013.7
20220518215015 84 86 0.0 2.0 0.00 0.00 0.00 42 1013.6
20220518214513 85 78 0.0 3.0 0.00 0.00 0.00 42 1013.7
20220518214012 85 266 0.0 5.0 0.00 0.00 0.00 43 1013.8
20220518213511 85 264 1.0 5.0 0.00 0.00 0.00 37 1014.1
20220518213011 86 222 1.0 3.0 0.00 0.00 0.00 39 1014.2
20220518212511 86 219 1.0 6.0 0.00 0.00 0.00 44 1014.1
20220518212011 86 222 1.0 6.0 0.00 0.00 0.00 41 1014.1
20220518211513 86 259 1.0 6.0 0.00 0.00 0.00 39 1014.1
20220518211010 87 109 1.0 3.0 0.00 0.00 0.00 41 1014.0
20220518210510 87 286 0.0 2.0 0.00 0.00 0.00 41 1014.2
20220518210010 87 259 1.0 4.0 0.00 0.00 0.00 40 1014.1
20220518205510 87 255 1.0 4.0 0.00 0.00 0.00 38 1014.1
20220518205011 87 250 1.0 4.0 0.00 0.00 0.00 37 1014.1
20220518204509 87 126 0.0 3.0 0.00 0.00 0.00 41 1014.2
20220518204010 88 261 0.0 4.0 0.00 0.00 0.00 38 1014.1
20220518203511 88 88 0.0 5.0 0.00 0.00 0.00 42 1014.0
20220518203011 88 285 1.0 8.0 0.00 0.00 0.00 41 1014.0
20220518202509 87 250 3.0 8.0 0.00 0.00 0.00 37 1014.0
20220518202007 87 266 1.0 7.0 0.00 0.00 0.00 40 1014.1
20220518201507 88 219 3.0 7.0 0.00 0.00 0.00 38 1014.3
20220518201005 88 257 1.0 4.0 0.00 0.00 0.00 42 1014.5
20220518200504 88 69 0.0 3.0 0.00 0.00 0.00 41 1014.8
20220518200007 88 138 0.0 5.0 0.00 0.00 0.00 40 1015.0
20220518195502 88 36 1.0 7.0 0.00 0.00 0.00 38 1015.1
20220518195001 88 219 0.0 7.0 0.00 0.00 0.00 36 1015.2
20220518194601 88 247 1.0 7.0 0.00 0.00 0.00 37 1015.3
20220518194059 88 252 1.0 4.0 0.00 0.00 0.00 40 1015.3
20220518193559 88 256 2.0 4.0 0.00 0.00 0.00 38 1015.3
20220518193058 88 53 0.0 4.0 0.00 0.00 0.00 40 1015.3
20220518192558 87 338 2.0 5.0 0.00 0.00 0.00 35 1015.4
20220518192102 87 11 0.0 5.0 0.00 0.00 0.00 42 1015.4
20220518191558 87 72 1.0 5.0 0.00 0.00 0.00 40 1015.5
20220518191102 87 242 2.0 7.0 0.00 0.00 0.00 42 1015.4
20220518190558 87 230 1.0 7.0 0.00 0.00 0.00 37 1015.6
20220518190056 87 261 0.0 10.0 0.00 0.00 0.00 39 1015.6
20220518185558 87 219 1.0 10.0 0.00 0.00 0.00 41 1015.7
20220518185055 87 244 4.0 9.0 0.00 0.00 0.00 35 1015.8
20220518184555 87 254 1.0 7.0 0.00 0.00 0.00 43 1015.7
20220518184053 87 190 1.0 7.0 0.00 0.00 0.00 38 1015.8
20220518183553 87 152 1.0 4.0 0.00 0.00 0.00 41 1015.8
20220518183053 87 265 0.0 6.0 0.00 0.00 0.00 41 1016.0
20220518182050 86 12 1.0 9.0 0.00 0.00 0.00 34 1016.3
20220518181549 86 264 2.0 9.0 0.00 0.00 0.00 43 1016.3
20220518181048 87 186 0.0 5.0 0.00 0.00 0.00 39 1016.5
20220518180547 86 349 1.0 5.0 0.00 0.00 0.00 36 1016.6
20220518180047 86 355 0.0 6.0 0.00 0.00 0.00 38 1016.7
20220518175545 86 208 1.0 9.0 0.00 0.00 0.00 37 1016.9
20220518175045 86 192 1.0 7.0 0.00 0.00 0.00 45 1017.0
20220518174545 86 257 1.0 7.0 0.00 0.00 0.00 39 1017.0
20220518174045 86 271 2.0 5.0 0.00 0.00 0.00 43 1017.1
20220518173544 86 233 2.0 5.0 0.00 0.00 0.00 40 1017.3
20220518173050 86 255 0.0 3.0 0.00 0.00 0.00 41 1017.5
20220518172543 86 253 1.0 5.0 0.00 0.00 0.00 41 1017.5
20220518172042 86 241 2.0 5.0 0.00 0.00 0.00 45 1017.5
20220518171544 86 158 0.0 2.0 0.00 0.00 0.00 46 1017.6
20220518171041 86 294 0.0 3.0 0.00 0.00 0.00 40 1017.7
20220518170539 85 275 1.0 4.0 0.00 0.00 0.00 43 1017.7
20220518170039 85 266 2.0 4.0 0.00 0.00 0.00 45 1017.7
20220518165539 85 102 0.0 3.0 0.00 0.00 0.00 39 1017.8
20220518165039 85 302 0.0 4.0 0.00 0.00 0.00 39 1017.8
20220518164541 85 221 1.0 4.0 0.00 0.00 0.00 40 1017.9
20220518164037 85 278 0.0 4.0 0.00 0.00 0.00 38 1018.1
20220518163537 85 267 1.0 5.0 0.00 0.00 0.00 48 1018.1
20220518163036 85 17 2.0 6.0 0.00 0.00 0.00 40 1017.9
20220518162536 84 245 1.0 8.0 0.00 0.00 0.00 46 1017.9
20220518162034 84 219 2.0 8.0 0.00 0.00 0.00 41 1018.0
20220518161535 84 109 2.0 8.0 0.00 0.00 0.00 39 1018.1
20220518161033 84 269 0.0 3.0 0.00 0.00 0.00 41 1018.2
20220518160531 84 321 0.0 3.0 0.00 0.00 0.00 45 1018.3
20220518160034 84 5 0.0 4.0 0.00 0.00 0.00 42 1018.3
20220518155530 84 298 0.0 4.0 0.00 0.00 0.00 48 1018.5
20220518155027 84 282 1.0 4.0 0.00 0.00 0.00 47 1018.5
20220518154526 84 264 1.0 3.0 0.00 0.00 0.00 40 1018.6
20220518154026 83 331 1.0 3.0 0.00 0.00 0.00 42 1018.6
20220518153524 83 355 0.0 3.0 0.00 0.00 0.00 50 1018.6
20220518153026 83 289 1.0 5.0 0.00 0.00 0.00 44 1018.7
20220518152525 83 290 2.0 4.0 0.00 0.00 0.00 40 1018.8
20220518152022 82 291 0.0 3.0 0.00 0.00 0.00 41 1018.9
20220518151519 82 331 0.0 3.0 0.00 0.00 0.00 43 1019.0
20220518151020 81 277 0.0 4.0 0.00 0.00 0.00 51 1019.0
20220518150516 81 267 1.0 4.0 0.00 0.00 0.00 48 1019.0
20220518150014 81 348 0.0 1.0 0.00 0.00 0.00 49 1019.0
20220518145513 81 349 0.0 1.0 0.00 0.00 0.00 48 1019.0
20220518145011 81 124 0.0 0.0 0.00 0.00 0.00 51 1019.1
20220518144509 80 120 0.0 2.0 0.00 0.00 0.00 53 1019.1
20220518144008 80 120 0.0 2.0 0.00 0.00 0.00 47 1019.1
20220518143507 80 119 0.0 2.0 0.00 0.00 0.00 46 1019.1
20220518143005 80 331 0.0 2.0 0.00 0.00 0.00 50 1019.2
20220518142505 78 333 0.0 3.0 0.00 0.00 0.00 56 1019.1
20220518142103 77 66 0.0 3.0 0.00 0.00 0.00 51 1019.0
20220518141502 77 172 0.0 2.0 0.00 0.00 0.00 59 1019.0
20220518141001 77 117 0.0 2.0 0.00 0.00 0.00 58 1019.2
20220518140601 76 117 0.0 2.0 0.00 0.00 0.00 61 1019.2
20220518140059 76 47 0.0 2.0 0.00 0.00 0.00 60 1019.2
20220518135558 76 49 0.0 2.0 0.00 0.00 0.00 61 1019.3
20220518135058 76 49 0.0 2.0 0.00 0.00 0.00 57 1019.3
20220518134557 75 36 0.0 2.0 0.00 0.00 0.00 67 1019.3
20220518134053 74 36 0.0 3.0 0.00 0.00 0.00 65 1019.3
20220518133552 73 44 0.0 3.0 0.00 0.00 0.00 68 1019.2
20220518133051 72 254 0.0 1.0 0.00 0.00 0.00 71 1019.2
20220518132550 71 254 0.0 1.0 0.00 0.00 0.00 70 1019.2
20220518132048 71 254 0.0 0.0 0.00 0.00 0.00 73 1019.2
20220518131547 70 254 0.0 0.0 0.00 0.00 0.00 76 1019.1
20220518131045 68 254 0.0 0.0 0.00 0.00 0.00 77 1019.5
20220518130543 67 254 0.0 0.0 0.00 0.00 0.00 80 1018.9
20220518130044 66 254 0.0 0.0 0.00 0.00 0.00 82 1018.7
20220518125540 65 254 0.0 0.0 0.00 0.00 0.00 84 1018.7
20220518125043 64 254 0.0 0.0 0.00 0.00 0.00 86 1018.5
20220518124537 62 254 0.0 0.0 0.00 0.00 0.00 90 1018.5
20220518124038 61 92 0.0 0.0 0.00 0.00 0.00 92 1018.4
20220518123539 60 144 0.0 0.0 0.00 0.00 0.00 93 1018.4
20220518123039 59 144 0.0 0.0 0.00 0.00 0.00 94 1018.2
20220518122532 58 144 0.0 0.0 0.00 0.00 0.00 94 1018.1
20220518122032 58 144 0.0 0.0 0.00 0.00 0.00 95 1018.2
20220518121532 57 94 0.0 0.0 0.00 0.00 0.00 95 1018.3
20220518121031 56 60 0.0 0.0 0.00 0.00 0.00 95 1018.3
20220518120531 56 60 0.0 0.0 0.00 0.00 0.00 95 1018.3
20220518120033 56 60 0.0 0.0 0.00 0.00 0.00 95 1018.3
20220518115530 55 60 0.0 0.0 0.00 0.00 0.00 94 1018.3
20220518115031 55 60 0.0 0.0 0.00 0.00 0.00 94 1018.4
20220518114529 55 60 0.0 0.0 0.00 0.00 0.00 94 1018.4
20220518114028 54 60 0.0 0.0 0.00 0.00 0.00 94 1018.4
20220518113527 54 60 0.0 0.0 0.00 0.00 0.00 94 1018.5
20220518113026 54 60 0.0 0.0 0.00 0.00 0.00 94 1018.4
20220518112529 54 60 0.0 0.0 0.00 0.00 0.00 93 1018.4
20220518112026 54 60 0.0 0.0 0.00 0.00 0.00 93 1018.4
20220518111528 54 53 0.0 0.0 0.00 0.00 0.00 93 1018.4
20220518111024 53 336 0.0 0.0 0.00 0.00 0.00 93 1018.3
20220518110525 53 335 0.0 0.0 0.00 0.00 0.00 93 1018.3
20220518110023 53 333 0.0 0.0 0.00 0.00 0.00 93 1018.4
20220518105525 53 333 0.0 0.0 0.00 0.00 0.00 93 1018.3
20220518105021 53 333 0.0 0.0 0.00 0.00 0.00 92 1018.1
20220518104520 53 333 0.0 0.0 0.00 0.00 0.00 92 1018.0
20220518104021 53 333 0.0 0.0 0.00 0.00 0.00 92 1017.9
20220518103518 53 333 0.0 0.0 0.00 0.00 0.00 92 1017.8
20220518103018 53 333 0.0 0.0 0.00 0.00 0.00 92 1017.7
20220518102517 53 333 0.0 0.0 0.00 0.00 0.00 92 1017.8
20220518102018 53 333 0.0 0.0 0.00 0.00 0.00 92 1017.7
20220518101516 53 333 0.0 0.0 0.00 0.00 0.00 92 1017.7
20220518101015 53 333 0.0 0.0 0.00 0.00 0.00 92 1017.7
20220518100515 53 333 0.0 0.0 0.00 0.00 0.00 92 1017.6
20220518100016 53 333 0.0 0.0 0.00 0.00 0.00 92 1017.6
20220518095517 53 333 0.0 0.0 0.00 0.00 0.00 92 1017.6
20220518095117 54 333 0.0 0.0 0.00 0.00 0.00 92 1017.6
20220518094514 54 333 0.0 0.0 0.00 0.00 0.00 92 1017.6
20220518094014 54 333 0.0 0.0 0.00 0.00 0.00 92 1017.5
20220518093515 54 333 0.0 0.0 0.00 0.00 0.00 92 1017.5
20220518093011 54 333 0.0 0.0 0.00 0.00 0.00 92 1017.4
20220518092511 54 333 0.0 0.0 0.00 0.00 0.00 92 1017.3
20220518092011 54 333 0.0 0.0 0.00 0.00 0.00 92 1017.3
20220518091512 54 333 0.0 0.0 0.00 0.00 0.00 91 1017.3
20220518091011 54 333 0.0 0.0 0.00 0.00 0.00 91 1017.3
20220518090510 54 333 0.0 0.0 0.00 0.00 0.00 91 1017.3
20220518090009 54 333 0.0 0.0 0.00 0.00 0.00 91 1017.2
20220518085511 54 333 0.0 0.0 0.00 0.00 0.00 91 1017.3
20220518085009 54 333 0.0 0.0 0.00 0.00 0.00 91 1017.2
20220518084508 54 333 0.0 0.0 0.00 0.00 0.00 91 1017.3
20220518084009 54 333 0.0 0.0 0.00 0.00 0.00 91 1017.3
20220518083507 54 333 0.0 0.0 0.00 0.00 0.00 91 1017.3
20220518083108 54 333 0.0 0.0 0.00 0.00 0.00 91 1017.3
20220518082507 54 333 0.0 0.0 0.00 0.00 0.00 91 1017.1
20220518082006 55 333 0.0 0.0 0.00 0.00 0.00 91 1017.2
20220518081512 55 333 0.0 0.0 0.00 0.00 0.00 91 1017.1
20220518081005 55 333 0.0 0.0 0.00 0.00 0.00 91 1017.1
20220518080505 55 333 0.0 0.0 0.00 0.00 0.00 91 1017.0
20220518080004 55 333 0.0 0.0 0.00 0.00 0.00 90 1017.0